Weather in Varvarovshchina

Russia / Smolensk Oblast     54°56′10″N   32°23′06″E
temp.,
°C
wind,
m/s
gust,
m/s
humid.,
%
clouds,
%
prec.,
mm/h
press.,
hPa
HPBL,
m
19 september, sun
sun1900:00+5e71792100 4.1 1016765
03:00+5e81795100 8.7 1015842
06:00+5e71696100 6.4 1014841
09:00+5e71596100 9.8 1014866
12:00+5ene71496100 4.6 1013930
15:00+5ene61496100 8.4 1013924
18:00+5ene71397100 8.8 1013893
21:00+5ene61297100 12.8 1013915
20 september, mon
mon2000:00+5ene61297100 1.8 1013911
03:00+5ene61297100 2.0 1012767
06:00+5ene61296100 0.3 1012755
09:00+4ne61297100 1.2 1012765
12:00+4ne61297100 0.0 1013768
15:00+4ne61397100 0.2 1012759
18:00+5ne61397100 0.3 1012789
21:00+4ne61496100 2.4 1013813
21 september, tue
tue2100:00+4ne61396100 1.4 1013779
03:00+4ne51297100 3.3 1012775
06:00+4ne51198100 2.7 1012854
09:00+2nne51298100 7.0 1013495
12:00+2nne51098100 2.3 1013484
15:00+2nne41098100 3.3 1013538
18:00+3n51098100 0.8 1014529
21:00+3n41098100 1.1 1014531
22 september, wed
wed2200:00+3n4898100 0.5 1014626
03:00+3n4898100 1.3 1014608
06:00+3n4998100 0.6 1014450
09:00+3n4998100 0.9 1014443
12:00+4n4998100 0.2 1015524
15:00+5n4898100 0.4 1014470
18:00+5n4897100 0.0 1014599
21:00+5n3697100 0.6 1014853
23 september, thu
thu2300:00+4n2498100 0.8 1013797
03:00+4n2398100 0.9 1012459
06:00+4n1299100 0.1 1011574
09:00+4wnw0098100 0.3 1011262
12:00+5ssw1295100 0.3 1010683
15:00+5ssw2395100 0.4 1009673
18:00+5ssw3697100 0.3 1008319
21:00+4s3797100 0.3 1007571